TimeCST,TemperatureF,Dew PointF,Humidity,Sea Level PressureIn,VisibilityMPH,Wind Direction,Wind SpeedMPH,Gust SpeedMPH,PrecipitationIn,Events,Conditions,WindDirDegrees,DateUTC
12:15 AM,-0.4,-5.8,78,29.90,10.0,ESE,8.1,-,N/A,,Mostly Cloudy,110,2012-12-12 06:15:00
12:35 AM,-0.4,-7.6,72,29.90,10.0,ESE,8.1,-,N/A,,Overcast,110,2012-12-12 06:35:00
12:55 AM,-0.4,-4.0,85,29.89,10.0,ESE,9.2,-,N/A,,Scattered Clouds,110,2012-12-12 06:55:00
1:15 AM,1.4,-2.2,85,29.88,10.0,East,8.1,-,N/A,,Mostly Cloudy,100,2012-12-12 07:15:00
1:35 AM,1.4,-5.8,72,29.87,10.0,East,10.4,-,N/A,,Overcast,90,2012-12-12 07:35:00
1:55 AM,1.4,-2.2,85,29.87,10.0,East,10.4,-,N/A,,Overcast,100,2012-12-12 07:55:00
2:15 AM,3.2,-2.2,78,29.86,10.0,East,11.5,-,N/A,,Overcast,100,2012-12-12 08:15:00
2:35 AM,3.2,-2.2,78,29.86,10.0,East,11.5,-,N/A,,Overcast,80,2012-12-12 08:35:00
2:55 AM,3.2,-2.2,78,29.86,10.0,East,11.5,-,N/A,,Overcast,90,2012-12-12 08:55:00
3:15 AM,3.2,-0.4,85,29.85,10.0,East,12.7,-,N/A,,Overcast,90,2012-12-12 09:15:00
3:35 AM,3.2,-0.4,85,29.82,10.0,East,12.7,-,N/A,,Mostly Cloudy,90,2012-12-12 09:35:00
3:55 AM,3.2,-0.4,85,29.81,10.0,East,12.7,-,N/A,,Partly Cloudy,90,2012-12-12 09:55:00
4:15 AM,5.0,1.4,85,29.81,10.0,East,12.7,-,N/A,,Clear,90,2012-12-12 10:15:00
4:55 AM,6.8,-0.4,72,29.80,10.0,East,10.4,-,N/A,,Overcast,80,2012-12-12 10:55:00
5:15 AM,6.8,1.4,79,29.78,10.0,East,13.8,-,N/A,,Overcast,90,2012-12-12 11:15:00
5:35 AM,6.8,1.4,79,29.77,10.0,East,15.0,-,N/A,,Overcast,90,2012-12-12 11:35:00
5:55 AM,6.8,1.4,79,29.77,10.0,East,13.8,19.6,N/A,,Overcast,80,2012-12-12 11:55:00
6:15 AM,8.6,3.2,79,29.77,10.0,East,17.3,-,N/A,,Overcast,90,2012-12-12 12:15:00
6:35 AM,8.6,3.2,79,29.76,10.0,East,17.3,21.9,N/A,,Overcast,100,2012-12-12 12:35:00
6:55 AM,8.6,3.2,79,29.75,10.0,East,18.4,-,N/A,,Overcast,90,2012-12-12 12:55:00
7:15 AM,10.4,6.8,85,29.75,10.0,East,13.8,-,N/A,,Overcast,100,2012-12-12 13:15:00
7:35 AM,10.4,6.8,85,29.75,10.0,East,12.7,-,N/A,,Overcast,100,2012-12-12 13:35:00
7:55 AM,10.4,6.8,85,29.73,10.0,East,16.1,-,N/A,,Overcast,100,2012-12-12 13:55:00
8:15 AM,10.4,6.8,85,29.73,10.0,East,13.8,-,N/A,,Overcast,100,2012-12-12 14:15:00
8:35 AM,12.2,8.6,85,29.73,10.0,East,12.7,-,N/A,,Overcast,100,2012-12-12 14:35:00
8:55 AM,12.2,8.6,85,29.73,10.0,East,10.4,-,N/A,,Overcast,100,2012-12-12 14:55:00
9:15 AM,14.0,8.6,79,29.73,10.0,East,11.5,-,N/A,,Overcast,100,2012-12-12 15:15:00
9:35 AM,14.0,10.4,86,29.74,10.0,East,8.1,-,N/A,,Overcast,90,2012-12-12 15:35:00
9:55 AM,15.8,10.4,79,29.75,10.0,East,6.9,-,N/A,,Overcast,80,2012-12-12 15:55:00
10:15 AM,15.8,10.4,79,29.76,10.0,ENE,6.9,-,N/A,,Overcast,70,2012-12-12 16:15:00
10:35 AM,17.6,12.2,79,29.76,10.0,East,5.8,-,N/A,,Overcast,80,2012-12-12 16:35:00
10:55 AM,17.6,12.2,79,29.76,10.0,East,8.1,-,N/A,,Mostly Cloudy,80,2012-12-12 16:55:00
11:15 AM,19.4,14.0,80,29.76,10.0,East,5.8,-,N/A,,Overcast,90,2012-12-12 17:15:00
11:35 AM,19.4,14.0,80,29.76,10.0,ESE,4.6,-,N/A,,Mostly Cloudy,120,2012-12-12 17:35:00
11:55 AM,21.2,15.8,80,29.77,10.0,Calm,Calm,-,N/A,,Partly Cloudy,0,2012-12-12 17:55:00
12:15 PM,21.2,15.8,80,29.76,10.0,ENE,3.5,-,N/A,,Partly Cloudy,70,2012-12-12 18:15:00
12:35 PM,21.2,15.8,80,29.76,10.0,NNE,4.6,-,N/A,,Scattered Clouds,30,2012-12-12 18:35:00
12:55 PM,21.2,15.8,80,29.75,10.0,ENE,4.6,-,N/A,,Scattered Clouds,70,2012-12-12 18:55:00
1:15 PM,21.2,15.8,80,29.75,10.0,ENE,3.5,-,N/A,,Clear,70,2012-12-12 19:15:00
1:35 PM,23.0,15.8,74,29.76,10.0,Calm,Calm,-,N/A,,Mostly Cloudy,0,2012-12-12 19:35:00
1:55 PM,21.2,15.8,80,29.76,10.0,Calm,Calm,-,N/A,,Overcast,0,2012-12-12 19:55:00
2:15 PM,21.2,15.8,80,29.77,10.0,Calm,Calm,-,N/A,,Overcast,0,2012-12-12 20:15:00
2:35 PM,21.2,15.8,80,29.77,10.0,Calm,Calm,-,N/A,,Overcast,0,2012-12-12 20:35:00
2:55 PM,21.2,15.8,80,29.78,10.0,NW,6.9,-,N/A,,Overcast,320,2012-12-12 20:55:00
3:15 PM,21.2,15.8,80,29.78,10.0,NNW,5.8,-,N/A,,Overcast,340,2012-12-12 21:15:00
3:35 PM,21.2,15.8,80,29.80,10.0,NW,5.8,-,N/A,,Overcast,320,2012-12-12 21:35:00
3:55 PM,21.2,15.8,80,29.80,10.0,NNW,5.8,-,N/A,,Overcast,330,2012-12-12 21:55:00
4:15 PM,19.4,15.8,86,29.82,9.0,NW,10.4,-,N/A,,Overcast,320,2012-12-12 22:15:00
4:35 PM,19.4,15.8,86,29.83,10.0,NW,10.4,-,N/A,,Overcast,310,2012-12-12 22:35:00
4:55 PM,17.6,14.0,86,29.84,10.0,NW,11.5,-,N/A,,Overcast,310,2012-12-12 22:55:00
5:15 PM,17.6,14.0,86,29.85,10.0,NW,13.8,-,N/A,,Overcast,320,2012-12-12 23:15:00
5:35 PM,15.8,12.2,86,29.86,10.0,NW,10.4,-,N/A,,Overcast,310,2012-12-12 23:35:00
6:15 PM,15.8,10.4,79,29.88,10.0,NW,12.7,-,N/A,,Overcast,320,2012-12-13 00:15:00
6:35 PM,15.8,10.4,79,29.88,10.0,NNW,10.4,-,N/A,,Overcast,330,2012-12-13 00:35:00
6:55 PM,15.8,10.4,79,29.89,10.0,NNW,8.1,-,N/A,,Overcast,330,2012-12-13 00:55:00
7:15 PM,14.0,10.4,86,29.89,10.0,NNW,10.4,-,N/A,,Overcast,330,2012-12-13 01:15:00
7:35 PM,14.0,8.6,79,29.89,10.0,NNW,10.4,-,N/A,,Overcast,330,2012-12-13 01:35:00
7:55 PM,14.0,12.2,93,29.90,10.0,NNW,9.2,-,N/A,,Overcast,340,2012-12-13 01:55:00
8:15 PM,12.2,10.4,92,29.91,10.0,NNW,10.4,-,N/A,,Overcast,330,2012-12-13 02:15:00
8:35 PM,12.2,8.6,85,29.92,10.0,NNW,10.4,-,N/A,,Overcast,330,2012-12-13 02:35:00
8:55 PM,12.2,8.6,85,29.92,10.0,NW,9.2,-,N/A,,Overcast,320,2012-12-13 02:55:00
9:35 PM,12.2,6.8,79,29.93,10.0,NW,9.2,-,N/A,,Overcast,320,2012-12-13 03:35:00
9:55 PM,12.2,8.6,85,29.94,10.0,NNW,8.1,-,N/A,,Overcast,330,2012-12-13 03:55:00
10:15 PM,10.4,8.6,92,29.94,10.0,NNW,10.4,-,N/A,,Overcast,330,2012-12-13 04:15:00
10:35 PM,10.4,8.6,92,29.95,10.0,NNW,8.1,-,N/A,,Overcast,330,2012-12-13 04:35:00
10:55 PM,10.4,6.8,85,29.95,10.0,NW,6.9,-,N/A,,Overcast,320,2012-12-13 04:55:00
11:15 PM,12.2,6.8,79,29.96,10.0,NNW,6.9,-,N/A,,Overcast,330,2012-12-13 05:15:00
11:35 PM,12.2,8.6,85,29.97,10.0,NNW,9.2,-,N/A,,Overcast,330,2012-12-13 05:35:00
11:55 PM,10.4,8.6,92,29.97,10.0,NNW,10.4,-,N/A,,Overcast,330,2012-12-13 05:55:00